TIME,DELAY(SENSOR),PRES,OXYGEN,RAWTEMP,T(OPTODE),TCPHASE,FLUOR,BETA(BETA700),BETA(BETA412),BETA(BETA440),CDOM,C(CSC),ED(ED412.40),ED(ED444.00),ED(ED489.70),ED(ED554.30),LU(LU411.80),LU(LU443.40),LU(LU489.60),LU(LU554.10),COMP,TILTX,TILTY,CHECK
1368331684,5804,820.0599975585938000,42.2373085021972660,654.2927246093750000,4.8156871795654300,54.5965614318847660,52,101,87,79,79,14719,2147756059,2147422912,2148008566,2147871350,2147637339,2147059766,2148255113,2147196726,3431,4,13,2749
1368335280,5809,856.7800292968750000,45.2784385681152340,659.4155273437500000,4.6472148895263670,54.2113494873046900,52,98,88,79,80,14726,2147756032,2147424713,2148005696,2147872576,2147642688,2147056374,2148258633,2147196900,718,4,13,18054
1368338880,5807,864.1699829101562000,47.4202117919921900,662.3458251953125000,4.5507130622863770,53.9366989135742200,53,100,89,80,79,14728,2147757933,2147425389,2148011483,2147873179,2147639826,2147059739,2148254765,2147195026,3550,4,13,62588
1368342480,5812,892.7199707031250000,48.4406089782714840,664.4586791992188000,4.4810729026794430,53.8172912597656250,53,98,86,79,80,14721,2147755666,2147423872,2148011666,2147873910,2147641197,2147055442,2148258413,2147193316,313,4,13,1560
1368346080,5805,894.8900146484375000,48.3004493713378900,664.8084716796875000,4.4695420265197750,53.8402290344238300,52,99,87,79,81,14727,2147755776,2147424667,2148011648,2147872210,2147638546,2147061961,2148255917,2147192054,9,4,13,30833
1368349680,5809,898.2299804687500000,47.7503890991210940,664.0750732421875000,4.4937210083007810,53.9132804870605500,51,97,85,79,80,14727,2147756608,2147425737,2148013430,2147875309,2147633307,2147053037,2148256804,2147200841,3590,4,13,31341
1368353280,5806,923.5300292968750000,46.9614906311035160,667.8925170898438000,4.3677902221679690,54.0676689147949200,53,97,85,78,80,14726,2147755474,2147427318,2148012050,2147874148,2147639250,2147057563,2148264009,2147195072,256,4,13,1255
1368356880,5806,929.9099731445312000,46.5328102111816400,667.9121704101562000,4.3671398162841800,54.1330299377441400,52,98,87,78,82,14725,2147756086,2147423954,2148011035,2147875620,2147640932,2147058102,2148264969,2147193563,345,4,13,9534
1368360480,5808,926.4199829101562000,46.9784507751464840,668.0014038085938000,4.3641948699951170,54.0666389465332000,54,97,87,79,79,14725,2147755702,2147425910,2148010221,2147874395,2147640886,2147055533,2148257389,2147197824,112,4,13,19773
1368364080,5809,956.3699951171875000,47.8047714233398440,671.2136230468750000,4.2581009864807130,53.9903602600097660,53,100,87,79,81,14723,2147755510,2147424466,2148009856,2147875035,2147642395,2147053540,2148259117,2147200713,3537,4,13,61414
1368367680,5807,963.9400024414062000,47.8128089904785160,669.5372924804688000,4.3134818077087400,53.9689598083496100,53,98,85,77,80,14724,2147756452,2147424347,2148009828,2147874998,2147639744,2147052269,2148258861,2147195840,156,4,13,15455
1368371280,5807,961.8699951171875000,47.6557807922363300,670.3632202148438000,4.2861981391906740,53.9994697570800800,53,303,86,79,80,14722,2147757558,2147422592,2148008457,2147871076,2147644461,2147053074,2148257920,2147198272,36,4,13,60332
1368374880,5808,986.9899902343750000,47.9779090881347660,672.4976196289062000,4.2156581878662110,53.9804191589355500,53,100,83,79,78,14723,2147756169,2147425810,2148010688,2147877211,2147642285,2147054363,2148260141,2147196745,192,4,13,24687
1368378480,5807,989.5000000000000000,47.8866615295410160,672.6541137695312000,4.2104849815368650,53.9960899353027340,52,101,84,78,79,14725,2147759954,2147425590,2148010267,2147873728,2147639049,2147051977,2148259245,2147195465,3592,4,13,17684
1368382080,5807,988.8699951171875000,47.7987403869628900,672.7625732421875000,4.2068939208984375,54.0079002380371100,53,98,85,78,81,14721,2147759652,2147425243,2148009353,2147874057,2147640950,2147051849,2148257179,2147194020,3284,4,13,62697
1368385680,5810,991.9299926757812000,47.9616889953613300,672.6967163085938000,4.2090740203857420,53.9883117675781250,52,100,90,79,80,14721,2147758729,2147424987,2148010779,2147875757,2147643648,2147055232,2148257060,2147199195,3463,4,13,33536
1368389280,5808,992.8499755859375000,47.8278312683105500,672.6538696289062000,4.2104887962341310,54.0058403015136700,53,98,89,79,81,14724,2147756342,2147423899,2148005385,2147875410,2147638838,2147053988,2148255040,2147198436,436,4,13,60530
1368392880,5809,989.4000244140625000,48.5037498474121100,674.2418823242188000,4.1579699516296390,53.9292182922363300,52,100,88,80,80,14725,2147759963,2147425444,2148008694,2147873042,2147641572,2147052781,2148258294,2147194212,3492,4,13,57062
1368396480,5811,994.5000000000000000,48.6745681762695300,673.6920166015625000,4.1761589050292970,53.9014091491699200,53,100,86,79,80,14723,2147757878,2147423460,2148012205,2147872731,2147640822,2147052973,2148260233,2147196242,11,4,13,45847
1368400080,5809,993.7000122070312000,47.8455390930175800,672.6668701171875000,4.2100582122802730,54.0061683654785160,51,99,88,78,81,14721,2147757037,2147423222,2148009526,2147875300,2147640630,2147055250,2148259163,2147197750,3532,4,13,42499
1368403680,5809,997.5200195312500000,48.0362815856933600,672.4667968750000000,4.2166748046875000,53.9731101989746100,52,99,84,78,81,14722,2147759021,2147424822,2148014381,2147874304,2147639634,2147059117,2148261769,2147193837,269,4,13,17622
1368407280,5807,1002.6300048828125000,47.8907890319824200,671.9741210937500000,4.2329649925231930,53.9895286560058600,53,99,88,81,79,14723,2147755894,2147423826,2148010011,2147872640,2147640246,2147055643,2148258240,2147197476,3294,4,13,40652
1368410880,5809,996.1599731445312000,47.5771789550781250,672.1505737304688000,4.2271289825439450,54.0320205688476560,52,111,87,79,79,14722,2147761142,2147423862,2148010340,2147872740,2147641773,2147054162,2148260946,2147195556,502,4,13,7468
1368414480,5810,997.2899780273438000,47.6496315002441400,671.7988281250000000,4.2387561798095700,54.0208511352539060,52,101,94,79,80,14722,2147756059,2147423963,2148010861,2147871945,2147642944,2147053604,2148257554,2147195794,66,4,13,48852
1368418080,5806,995.2100219726562000,47.4037818908691400,671.8375244140625000,4.2374801635742190,54.0577011108398440,52,99,85,79,79,14720,2147758848,2147425792,2148011840,2147871926,2147642148,2147050816,2148257993,2147197650,3447,4,13,35930
1368421680,5809,993.4799804687500000,47.4666481018066400,673.1553955078125000,4.1939067840576170,54.0654716491699200,54,98,87,78,80,14710,2147758802,2147426322,2148013238,2147872658,2147642761,2147057563,2148259849,2147196105,593,4,13,7776
1368425280,5807,993.3699951171875000,48.8787307739257800,674.2156982421875000,4.1588358879089355,53.8806495666503900,52,102,86,79,79,14708,2147757156,2147425060,2148009545,2147872649,2147637952,2147057179,2148257846,2147196571,3449,4,13,49498
1368428880,5809,992.7000122070312000,47.6634597778320300,673.1633300781250000,4.1936450004577640,54.0385208129882800,52,98,85,79,79,14711,2147757147,2147425362,2148010596,2147875913,2147642230,2147052178,2148261458,2147197897,449,4,13,2490
1368432480,5809,990.3499755859375000,48.1069717407226560,674.1932983398438000,4.1595759391784670,53.9871902465820300,52,98,91,79,80,14706,2147757248,2147422592,2148009929,2147875419,2147641005,2147053906,2148259355,2147199186,3581,4,13,16474
1368436080,5811,983.0900268554688000,48.9894905090332000,675.2106933593750000,4.1259140968322750,53.8735389709472660,51,99,87,79,81,14708,2147755264,2147425929,2148013229,2147871222,2147641371,2147054948,2148260845,2147198326,3358,4,13,54958
1368439680,5812,987.7600097656250000,49.1360206604003900,675.4509887695312000,4.1179599761962890,53.8619384765625000,52,101,80,78,81,14708,2147760850,2147423881,2148009581,2147871780,2147645129,2147052937,2148261202,2147198061,52,4,13,22419
1368443280,5807,991.5700073242188000,48.5455093383789060,675.2280273437500000,4.1253409385681150,53.9395408630371100,52,98,88,80,80,14706,2147757842,2147421632,2148011437,2147876781,2147641426,2147054180,2148261659,2147193042,67,4,13,23679
1368446880,5809,1001.7000122070312000,48.6617317199707000,673.4503784179688000,4.1841511726379395,53.8986091613769500,52,99,84,79,80,14704,2147760521,2147425718,2148013650,2147872777,2147641078,2147053869,2148259657,2147194541,3319,4,13,28460
1368450480,5810,999.4000244140625000,47.2361297607421900,672.9995117187500000,4.1990599632263180,54.0926513671875000,53,97,85,79,80,14705,2147760246,2147423094,2148013485,2147876352,2147643940,2147053997,2148262025,2147197174,416,4,13,38724
1368454080,5810,990.8200073242188000,48.1179809570312500,673.5479125976562000,4.1809248924255370,53.9796714782714840,52,98,82,78,80,14706,2147756452,2147423323,2148011126,2147872137,2147640438,2147049691,2148258697,2147195675,115,4,13,21862
1368457680,5808,996.8699951171875000,48.2574501037597660,673.5474243164062000,4.1809430122375490,53.9560089111328100,52,99,89,80,80,14706,2147759442,2147421622,2148010102,2147872859,2147643053,2147056923,2148259373,2147196873,240,4,13,36347
1368461280,5806,998.2299804687500000,48.6858215332031250,674.0512695312500000,4.1642761230468750,53.9037513732910160,51,98,84,79,80,14708,2147758006,2147422994,2148013558,2147872548,2147639762,2147058020,2148260141,2147197897,155,4,13,37848
1368464880,5808,994.8599853515625000,48.6147003173828100,674.5640258789062000,4.1473121643066410,53.9200706481933600,53,99,88,78,81,14701,2147757888,2147423469,2148011062,2147871259,2147642752,2147057892,2148258011,2147198802,3370,4,13,37447
1368468480,5808,996.9199829101562000,48.6713218688964840,674.4760742187500000,4.1502189636230470,53.9123115539550800,52,98,89,78,80,14701,2147753554,2147425490,2148014363,2147872448,2147642953,2147056749,2148264923,2147197750,352,4,13,38699
1368472080,5808,989.5399780273438000,48.3809089660644500,674.2612304687500000,4.1573300361633300,53.9502182006835940,52,98,85,79,80,14701,2147755885,2147423698,2148011026,2147873773,2147642221,2147048740,2148256749,2147197942,18,4,13,41449
1368475680,5811,988.7500000000000000,48.8604698181152340,675.1425170898438000,4.1281719207763670,53.8951683044433600,53,101,82,79,80,14703,2147755730,2147424475,2148009252,2147869513,2147642468,2147052013,2148258084,2147199268,416,4,13,48785
1368475855,5809,989.8300170898438000,48.8703804016113300,675.0468750000000000,4.1313338279724120,53.8919601440429700,54,97,87,78,81,14702,2147756397,2147425755,2148007634,2147870592,2147644818,2147055826,2148264786,2147196050,384,4,13,27344
